Location: Unspecified
(44.0704°N, 88.6889°W)
Time: 12:41:52
(UTC+01:00)

Okean 3 - Pass Details

Date: 05 October 2020
Orbit: 575 x 602 km, 82.5° (Epoch: 26 October)

Event Time Altitude Azimuth Distance (km) Brightness Sun altitude
Exits shadow 10:55:26 - 128° (SE) 2,252 6.7 -32.6°
Reaches altitude 10° 10:56:44 10° 116° (ESE) 1,932 6.5 -32.4°
Maximum altitude 10:58:55 14° 85° (E) 1,687 6.5 -32.0°
Drops below altitude 10° 11:01:07 10° 53° (NE) 1,932 6.9 -31.7°
Sets 11:04:15 0° 28° (NNE) 2,834 7.7 -31.2°
